Tracking 30107 objects as of 18-Jan-2025
HD Live streaming from Space Station
objects crossing your sky now

DMSP 5D-3 F18 DEB

Track DMSP 5D-3 F18 DEB now!
10-day predictions


NORAD ID: 35954
Int'l Code: 2009-057D
Perigee: 810.9 km
Apogee: 818.1 km
Inclination: 98.6 °
Period: 101.0 minutes
Semi major axis: 7185 km
RCS: 0.06 m2 (small)
Launch date: October 18, 2009
Source: United States (US)
Launch site: AIR FORCE WESTERN TEST RANGE (AFWTR)

Note: This is SATELLITE DEBRIS
Your satellite tracking list
Your tracking list is empty




NASA's NSSDC Master Catalog

Two Line Element Set (TLE):
1 35954U 09057D   25017.97900802  .00004262  00000-0  18262-2 0  9992
2 35954  98.6004  10.9909 0005019 164.5967 258.1366 14.25342001788844
Source of the keplerian elements: AFSPC